TimeEST,TemperatureF,Dew PointF,Humidity,Sea Level PressureIn,VisibilityMPH,Wind Direction,Wind SpeedMPH,Gust SpeedMPH,PrecipitationIn,Events,Conditions,WindDirDegrees,DateUTC
12:53 AM,41.0,26.1,55,29.97,10.0,NW,8.1,-,N/A,,Overcast,320,2012-11-05 05:53:00
1:53 AM,41.0,26.1,55,29.98,10.0,NW,6.9,-,N/A,,Overcast,320,2012-11-05 06:53:00
2:53 AM,39.9,26.1,58,29.97,10.0,NNW,10.4,-,N/A,,Overcast,330,2012-11-05 07:53:00
3:53 AM,39.9,26.1,58,29.97,10.0,NNW,10.4,-,N/A,,Overcast,330,2012-11-05 08:53:00
4:53 AM,39.0,24.1,55,29.99,10.0,NNW,4.6,-,N/A,,Overcast,340,2012-11-05 09:53:00
5:53 AM,37.9,23.0,55,30.00,10.0,North,6.9,-,N/A,,Overcast,350,2012-11-05 10:53:00
6:53 AM,37.9,21.9,53,30.02,10.0,North,6.9,-,N/A,,Overcast,350,2012-11-05 11:53:00
7:53 AM,39.0,21.9,50,30.03,10.0,North,9.2,-,N/A,,Overcast,350,2012-11-05 12:53:00
8:53 AM,39.0,21.9,50,30.04,10.0,NW,9.2,-,N/A,,Overcast,320,2012-11-05 13:53:00
9:53 AM,39.9,21.9,49,30.04,10.0,NNW,10.4,-,N/A,,Overcast,340,2012-11-05 14:53:00
10:53 AM,41.0,23.0,49,30.04,10.0,North,11.5,-,N/A,,Overcast,360,2012-11-05 15:53:00
11:53 AM,42.1,21.9,45,30.02,10.0,North,9.2,18.4,N/A,,Overcast,350,2012-11-05 16:53:00
12:53 PM,42.1,21.9,45,30.01,10.0,NNW,8.1,18.4,N/A,,Mostly Cloudy,330,2012-11-05 17:53:00
1:53 PM,43.0,21.9,43,30.00,10.0,NW,12.7,19.6,N/A,,Clear,320,2012-11-05 18:53:00
2:53 PM,43.0,21.0,42,30.02,10.0,NNW,9.2,-,N/A,,Clear,330,2012-11-05 19:53:00
3:53 PM,42.1,19.9,41,30.03,10.0,North,15.0,-,N/A,,Mostly Cloudy,10,2012-11-05 20:53:00
4:53 PM,39.9,18.0,41,30.06,10.0,NNW,9.2,-,N/A,,Clear,330,2012-11-05 21:53:00
5:53 PM,37.9,18.0,45,30.09,10.0,North,11.5,-,N/A,,Clear,360,2012-11-05 22:53:00
6:53 PM,37.0,17.1,44,30.11,10.0,North,5.8,-,N/A,,Clear,350,2012-11-05 23:53:00
7:53 PM,35.1,17.1,48,30.12,10.0,North,5.8,-,N/A,,Clear,350,2012-11-06 00:53:00
8:53 PM,35.1,18.0,50,30.14,10.0,North,6.9,-,N/A,,Clear,360,2012-11-06 01:53:00
9:53 PM,33.1,18.0,54,30.15,10.0,North,4.6,-,N/A,,Clear,350,2012-11-06 02:53:00
10:53 PM,32.0,17.1,54,30.16,10.0,Calm,Calm,-,N/A,,Clear,0,2012-11-06 03:53:00
11:53 PM,32.0,17.1,54,30.17,10.0,North,3.5,-,N/A,,Clear,360,2012-11-06 04:53:00